Flag for Germany Weather past 2 weeks in Gütersloh, North Rhine-Westphalia, Germany

48 °F

Passing clouds.

Feels Like: 43 °F
Forecast: 45 / 50 °F
Wind: 14 mph from Northwest

Location: Paderborn / Lippstadt

Current Time: Dec 1, 2015 at 3:25:02 AM

Latest Report: Dec 1, 2015 at 2:20 AM

Visibility: N/A

Pressure: 29.95 "Hg

Humidity: 87%

Dew point: 45 °F

Location of GüterslohLocation

Historic Weather in Gütersloh — Graph


Gütersloh temperature yesterday

Maximum temperature yesterday: 48 °F (at 4:20 PM)
Minimum temperature yesterday: 41 °F (at 12:50 PM)
Average temperature yesterday: 45 °F

Past Weeks' High & Low Weather Summary

High57 °F (Nov 17, 1:20 PM)100% (Nov 19, 8:50 PM)30.24 "Hg (Nov 19, 8:50 PM)
Low30 °F (Nov 22, 9:50 PM)56% (Nov 24, 10:50 AM)29.36 "Hg (Nov 21, 5:20 AM)
Average42 °F82%29.82 "Hg
* Reported Nov 16 12:20 AM — Dec 1 12:50 AM, Gütersloh, Weather by CustomWeather, © 2015

Note: Actual official high and low records may vary slightly from our data, if they occured in-between our weather recording intervals... More about our weather records


Gütersloh weather history for previous 24 hours

Time TempWeatherWind HumidityBarometerVisibility
12:50 AM
Tue, Dec 1
48 °FRain. Passing clouds.20 mph100%29.86 "Hg4 mi
11:50 PM
Mon, Nov 30
48 °FRain. Passing clouds.18 mph94%29.83 "Hg4 mi
11:20 PM48 °FRain. Passing clouds.21 mph94%29.83 "Hg4 mi
10:50 PM48 °FRain. Passing clouds.23 mph94%29.80 "Hg6 mi
10:20 PM48 °FRain. Passing clouds.23 mph94%29.80 "Hg6 mi
9:50 PM48 °FRain. Passing clouds.22 mph94%29.80 "Hg6 mi
9:20 PM48 °FRain. Partly cloudy.24 mph94%29.80 "Hg6 mi
8:50 PM48 °FRain. Partly cloudy.22 mph87%29.80 "Hg6 mi
8:20 PM48 °FRain. Partly cloudy.26 mph87%29.80 "Hg6 mi
7:50 PM48 °FRain. Passing clouds.20 mph87%29.80 "Hg5 mi
7:20 PM48 °FRain. Passing clouds.22 mph87%29.80 "Hg4 mi
6:50 PM48 °FRain. Passing clouds.25 mph87%29.80 "Hg4 mi
6:20 PM46 °FRain. Partly cloudy.17 mph93%29.83 "Hg5 mi
5:50 PM46 °FRain. Partly cloudy.17 mph93%29.83 "Hg5 mi
5:20 PM48 °FRain. Partly cloudy.17 mph87%29.83 "Hg5 mi
4:50 PM48 °FLight rain. Partly cloudy.21 mph87%29.86 "Hg5 mi
4:20 PM48 °FLight rain. Partly cloudy.20 mph87%29.86 "Hg5 mi
3:50 PM46 °FLight rain. Broken clouds.21 mph87%29.86 "Hg5 mi
3:20 PM45 °FLight rain. Broken clouds.18 mph93%29.89 "Hg5 mi
2:50 PM43 °FLight rain. Partly sunny.10 mph93%29.89 "Hg5 mi
2:20 PM41 °FLight rain. Broken clouds.5 mph87%29.92 "Hg5 mi
1:50 PM41 °FPartly sunny.9 mph87%29.98 "Hg6 mi
1:20 PM41 °FLight rain. Partly sunny.12 mph87%30.01 "Hg5 mi
12:50 PM41 °FLight rain. Scattered clouds.20 mph70%30.01 "Hg5 mi
12:20 PM43 °FSprinkles. Passing clouds.13 mph66%30.04 "HgN/A
11:50 AM43 °FPassing clouds.14 mph71%30.04 "HgN/A
11:20 AM43 °FPassing clouds.12 mph66%30.04 "HgN/A
10:50 AM43 °FPassing clouds.10 mph66%30.04 "HgN/A
10:20 AM43 °FPassing clouds.9 mph61%30.07 "HgN/A
9:50 AM43 °FPassing clouds.12 mph61%30.07 "HgN/A
9:20 AM43 °FBroken clouds.13 mph57%30.04 "HgN/A
8:50 AM43 °FBroken clouds.14 mph57%30.04 "HgN/A
7:50 AM43 °FPassing clouds.14 mph66%30.01 "HgN/A
7:20 AM43 °FPassing clouds.13 mph71%29.98 "HgN/A
6:50 AM43 °FPassing clouds.14 mph66%29.98 "HgN/A
6:20 AM43 °FPassing clouds.13 mph71%29.95 "HgN/A
5:50 AM45 °FPassing clouds.17 mph61%29.95 "HgN/A
5:20 AM45 °FPassing clouds.14 mph66%29.92 "HgN/A
4:20 AM45 °FPassing clouds.15 mph71%29.89 "HgN/A
3:50 AM45 °FPassing clouds.16 mph71%29.89 "HgN/A
3:20 AM45 °FPassing clouds.14 mph76%29.86 "HgN/A
Weather by CustomWeather, © 2015

See weather overviewHow to use our weather pages